Location: Dover
(48.8500°N, 53.9833°W)
Time: 15:13:24
(UTC+00:00)

SMAP - Pass Details

Date: 14 November 2025
Orbit: 681 x 683 km, 98.1° (Epoch: 13 December)

Event Time Altitude Azimuth Distance (km) Brightness Sun altitude
Rises 20:40:26 0° 159° (SSE) 3,035 6.4 -7.5°
Reaches altitude 10° 20:42:40 10° 157° (SSE) 2,124 5.6 -7.8°
Maximum altitude 20:47:18 73° 73° (ENE) 718 3.0 -8.5°
Drops below altitude 10° 20:51:58 10° 349° (N) 2,139 5.6 -9.3°
Sets 20:54:13 0° 348° (NNW) 3,059 6.4 -9.6°
